Location: Central Falls
(41.8900°N, 71.3929°W)
Time: 02:38:26
(UTC+00:00)

Vanguard 2 - Pass Details

Date: 08 December 2023
Orbit: 554 x 2918 km, 32.9° (Epoch: 01 March)

Event Time Altitude Azimuth Distance (km) Brightness Sun altitude
Rises 04:31:01 0° 269° (W) 6,690 12.3 -70.8°
Enters shadow 04:33:53 - 267° (W) 6,003 12.0 -70.8°
Reaches altitude 10° 04:35:53 10° 266° (W) 5,519 - -70.8°
Maximum altitude 04:50:53 52° 196° (SSW) 2,495 - -70.6°
Drops below altitude 10° 05:00:36 10° 124° (SE) 3,682 - -70.2°
Sets 05:03:12 0° 119° (ESE) 4,387 - -70.0°
